DB0LHR-6 Weather Reports


Display with metric or nautical units.
time (UTC)temp
F
wind
direction
speed
MPH
gust
MPH
rain 1hr
in
rain 24hr
in
rain mn
in
humidity
%
barometer
mb
20260507121616 60 204 0.0 0.0 0.00 0.00 0.00 55 1015.0
20260507120116 60 180 0.0 0.0 0.00 0.00 0.00 56 1015.0
20260507114616 60 234 0.0 0.0 0.00 0.00 0.00 55 1015.0
20260507113116 60 248 0.0 0.0 0.00 0.00 0.00 55 1015.0
20260507111616 61 261 7.0 0.0 0.00 0.00 0.00 61 1015.0
20260507110116 60 219 0.0 0.0 0.00 0.00 0.00 62 1015.0
20260507104616 59 159 0.0 0.0 0.00 0.00 0.00 63 1015.0
20260507103116 58 327 0.0 0.0 0.00 0.00 0.00 68 1015.0
20260507101616 58 203 0.0 0.0 0.00 0.00 0.00 71 1015.0
20260507100116 58 184 0.0 0.0 0.00 0.00 0.00 78 1015.0
20260507094616 56 194 0.0 0.0 0.00 0.00 0.00 87 1015.0
20260507093116 56 216 0.0 0.0 0.00 0.00 0.00 95 1015.0
20260507091616 55 324 0.0 0.0 0.00 0.00 0.00 97 1015.0
20260507090116 54 328 0.0 0.0 0.00 0.00 0.00 97 1014.0
20260507084616 54 189 0.0 0.0 0.00 0.00 0.00 97 1014.0
20260507083116 54 251 0.0 0.0 0.00 0.00 0.00 97 1014.0
20260507081616 53 218 0.0 0.0 0.00 0.00 0.00 97 1014.0
20260507080116 53 320 0.0 0.0 0.00 0.00 0.00 97 1014.0
20260507074616 52 321 0.0 0.0 0.00 0.00 0.00 97 1014.0
20260507073116 51 208 0.0 0.0 0.00 0.00 0.00 97 1014.0
20260507071616 51 190 2.0 0.0 0.00 0.00 0.00 97 1014.0
20260507070116 51 322 0.0 0.0 0.00 0.00 0.00 97 1014.0
20260507064616 51 163 0.0 0.0 0.00 0.00 0.00 97 1014.0
20260507063116 50 327 0.0 0.0 0.00 0.00 0.00 97 1014.0
20260507061616 50 297 0.0 0.0 0.00 0.00 0.00 97 1013.0
20260507060116 50 329 0.0 0.0 0.00 0.00 0.00 97 1013.0
20260507054616 50 219 0.0 0.0 0.00 0.00 0.00 97 1013.0
20260507053116 50 337 0.0 0.0 0.00 0.00 0.00 97 1013.0
20260507051616 50 208 0.0 0.0 0.00 0.00 0.00 97 1013.0
20260507050116 50 183 0.0 0.0 0.00 0.00 0.00 97 1013.0
20260507044616 49 321 0.0 0.0 0.00 0.00 0.00 97 1013.0
20260507043116 49 190 0.0 0.0 0.00 0.00 0.00 97 1012.0
20260507041616 49 173 0.0 0.0 0.00 0.00 0.00 97 1012.0
20260507040116 49 214 0.0 0.0 0.00 0.00 0.00 97 1012.0
20260507034616 49 218 0.0 0.0 0.00 0.00 0.00 97 1012.0
20260507033116 49 168 0.0 0.0 0.00 0.00 0.00 97 1012.0
20260507031616 49 180 0.0 0.0 0.00 0.00 0.00 97 1012.0
20260507030116 49 198 2.0 0.0 0.00 0.00 0.00 97 1012.0
20260507024616 49 154 0.0 0.0 0.00 0.00 0.00 97 1012.0
20260507023116 49 178 0.0 0.0 0.00 0.00 0.00 97 1012.0
20260507021616 49 345 0.0 0.0 0.00 0.00 0.00 97 1012.0
20260507020116 49 216 0.0 0.0 0.00 0.00 0.00 97 1012.0
20260507014616 49 214 0.0 0.0 0.00 0.00 0.00 97 1012.0
20260507013116 49 208 0.0 0.0 0.00 0.00 0.00 97 1011.0
20260507011616 49 221 0.0 0.0 0.00 0.00 0.00 97 1011.0
20260507010116 49 236 0.0 0.0 0.00 0.00 0.00 97 1011.0
20260507004616 49 173 1.0 0.0 0.00 0.00 0.00 97 1011.0
20260507003116 49 160 0.0 0.0 0.00 0.00 0.00 97 1011.0
20260507001616 49 231 0.0 0.0 0.00 0.00 0.00 97 1011.0
20260507000116 49 207 0.0 0.0 0.00 0.00 0.00 97 1011.0
20260506234617 49 141 3.0 0.0 0.00 0.00 0.00 97 1011.0
20260506233116 49 175 0.0 0.0 0.00 0.00 0.00 97 1011.0
20260506231616 49 168 0.0 0.0 0.00 0.00 0.00 97 1011.0
20260506230116 49 216 0.0 0.0 0.00 0.00 0.00 97 1011.0
20260506224616 49 184 0.0 0.0 0.00 0.00 0.00 97 1011.0
20260506223116 50 178 0.0 0.0 0.00 0.00 0.00 97 1011.0
20260506221616 50 216 0.0 0.0 0.00 0.00 0.00 97 1010.0
20260506220116 50 161 2.0 0.0 0.00 0.00 0.00 97 1010.0
20260506214616 50 180 0.0 0.0 0.00 0.00 0.00 97 1010.0
20260506213116 50 207 3.0 0.0 0.00 0.00 0.00 97 1010.0
20260506211616 50 135 2.0 0.0 0.00 0.00 0.00 97 1010.0
20260506210116 50 199 0.0 0.0 0.00 0.00 0.00 97 1010.0
20260506204616 50 145 0.0 0.0 0.00 0.00 0.00 97 1010.0
20260506203116 50 172 0.0 0.0 0.00 0.00 0.00 97 1010.0
20260506201616 50 187 0.0 0.0 0.00 0.00 0.00 97 1010.0
20260506200116 50 144 0.0 0.0 0.00 0.00 0.00 97 1010.0
20260506194616 51 180 0.0 0.0 0.00 0.00 0.00 97 1010.0
20260506193116 51 216 3.0 0.0 0.00 0.00 0.00 97 1010.0
20260506191616 51 184 0.0 0.0 0.00 0.00 0.00 97 1009.0
20260506190116 51 203 0.0 0.0 0.00 0.00 0.00 97 1009.0
20260506184616 51 166 2.0 0.0 0.00 0.00 0.00 96 1009.0
20260506183116 51 152 3.0 0.0 0.00 0.00 0.00 95 1009.0
20260506181616 51 222 0.0 0.0 0.00 0.00 0.00 95 1008.0
20260506180116 51 322 0.0 0.0 0.00 0.00 0.00 94 1008.0
20260506174616 51 210 0.0 0.0 0.00 0.00 0.00 94 1008.0
20260506173116 52 176 0.0 0.0 0.00 0.00 0.00 93 1008.0
20260506171616 52 273 1.0 0.0 0.00 0.00 0.00 92 1008.0
20260506170116 52 186 0.0 0.0 0.00 0.00 0.00 90 1008.0
20260506164616 53 328 0.0 0.0 0.00 0.00 0.00 89 1008.0
20260506163116 53 203 0.0 0.0 0.00 0.00 0.00 89 1008.0
20260506161616 53 218 3.0 0.0 0.00 0.00 0.00 89 1008.0
20260506160116 53 156 0.0 0.0 0.00 0.00 0.00 89 1008.0
20260506154616 54 160 4.0 0.0 0.00 0.00 0.00 89 1008.0
20260506153116 54 174 0.0 0.0 0.00 0.00 0.00 89 1008.0
20260506151616 55 327 3.0 0.0 0.00 0.00 0.00 89 1008.0
20260506150116 54 160 14.0 0.0 0.00 0.00 0.00 87 1008.0
20260506144616 55 213 2.0 0.0 0.00 0.00 0.00 86 1008.0
20260506143116 55 174 3.0 0.0 0.00 0.00 0.00 82 1008.0
20260506141616 55 222 3.0 0.0 0.00 0.00 0.00 78 1008.0
20260506140116 56 232 2.0 0.0 0.00 0.00 0.00 74 1007.0
20260506134616 57 313 2.0 0.0 0.00 0.00 0.00 76 1007.0
20260506133116 57 130 5.0 0.0 0.00 0.00 0.00 78 1007.0
20260506131616 58 185 4.0 0.0 0.00 0.00 0.00 81 1007.0
20260506130116 58 184 5.0 0.0 0.00 0.00 0.00 78 1007.0
20260506124616 59 328 1.0 0.0 0.00 0.00 0.00 71 1007.0
20260506123116 60 211 0.0 0.0 0.00 0.00 0.00 70 1007.0